Torna al catalogo

STARLINK-35558

AttivoComunicazioniVLEO
NORAD 66060·PAYLOAD·🇺🇸 United States

Lanciato Oct 19, 2025 da Cape Canaveral Space Force Station

Loading…

Prossimi Passaggi (prossime 24 ore)

TLE

AggiornatoSource: CelesTrak SupGP

Epoca: Sep 14, 2026, 22:32 UTC

1 66060C 25235C   26257.93937500  .00047765  00000+0  14113-2 0  2570
2 66060  53.1594  85.4045 0001258  79.5218  82.3342 15.34364249    15

Traccia STARLINK-35558 in tempo reale con AllMySat

Download on the App Store